1497481200.18,62911,17.81,73898.0,-1.87,-31.91,-32.23,0,*59
1497481201.42,62912,17.81,73904.5,-1.89,-31.95,-32.13,0,*53
1497481202.7,62913,17.81,73902.8,-1.91,-31.73,-32.07,0,*56
1497481203.99,62914,17.81,73910.3,-1.91,-32.07,-32.45,0,*57
1497481205.24,62915,17.81,73904.0,-1.91,-32.23,-32.63,0,*54
1497481206.5,62916,17.81,73902.3,-1.91,-32.01,-32.45,0,*53
1497481207.76,62917,17.81,73906.0,-1.91,-31.73,-32.01,0,*54
1497481209.02,62918,17.81,73900.3,-1.91,-32.01,-32.45,0,*5D
1497481210.28,62919,17.81,73906.0,-1.91,-32.07,-32.57,0,*59
1497481211.53,62920,17.81,73902.8,-1.91,-32.23,-32.75,0,*55
1497481212.76,62921,17.81,73900.8,-1.93,-31.91,-32.35,0,*58
1497481214.02,62922,17.81,73904.5,-1.91,-31.73,-32.01,0,*52
1497481215.28,62923,17.81,73902.0,-1.91,-31.85,-32.23,0,*5A
1497481216.56,62924,17.81,73904.0,-1.91,-32.19,-32.45,0,*5B
1497481217.82,62925,17.81,73904.3,-1.91,-31.91,-32.23,0,*59
1497481219.05,62926,17.81,73906.3,-1.91,-31.67,-32.01,0,*53
1497481220.3,62927,17.81,73906.0,-1.91,-31.91,-32.35,0,*5C
1497481221.53,62928,17.81,73906.8,-1.93,-32.07,-32.35,0,*5D
1497481222.82,62929,17.81,73902.8,-1.91,-31.85,-32.19,0,*59
1497481224.07,62930,17.81,73902.3,-1.91,-32.23,-32.63,0,*53
1497481225.33,62931,17.81,73900.0,-1.91,-32.01,-32.45,0,*56
1497481226.59,62932,17.81,73904.3,-1.91,-32.23,-32.75,0,*56
1497481227.88,62933,17.81,73902.8,-1.91,-31.91,-32.19,0,*57
1497481229.08,62934,17.81,73900.5,-1.89,-31.79,-32.13,0,*55
1497481230.31,62935,17.81,73902.5,-1.87,-31.79,-32.13,0,*5A
1497481231.57,62936,17.81,73896.5,-1.89,-31.85,-32.19,0,*5E
1497481232.82,62937,17.81,73902.5,-1.91,-32.19,-32.57,0,*5A
1497481234.05,62938,17.81,73902.8,-1.93,-32.19,-32.57,0,*57
1497481235.27,62939,17.81,73906.0,-1.91,-32.23,-32.57,0,*5D
1497481236.53,62940,17.81,73904.8,-1.91,-32.01,-32.45,0,*50
1497481237.76,62941,17.81,73904.5,-1.91,-32.23,-32.57,0,*52
1497481239.0,62942,17.81,73902.5,-1.91,-32.35,-32.63,0,*51
1497481240.26,62943,17.81,73906.0,-1.91,-32.01,-32.45,0,*53
1497481241.53,62944,17.81,73900.3,-1.91,-32.01,-32.45,0,*54
1497481242.76,62945,17.81,73900.8,-1.93,-31.91,-32.23,0,*5D
1497481243.99,62946,17.81,73900.5,-1.91,-32.01,-32.35,0,*51
1497481245.23,62947,17.81,73902.5,-1.91,-32.01,-32.35,0,*50
1497481246.48,62948,17.81,73900.3,-1.91,-31.91,-32.23,0,*52
1497481247.74,62949,17.81,73900.8,-1.91,-31.91,-32.23,0,*53
1497481248.94,62950,17.81,73900.5,-1.93,-31.67,-32.01,0,*50
1497481250.2,62951,17.81,73902.8,-1.91,-32.01,-32.45,0,*50
1497481251.46,62952,17.81,73902.8,-1.89,-31.85,-32.19,0,*5C
1497481252.75,62953,17.81,73902.8,-1.91,-31.91,-32.19,0,*51
1497481254.03,62954,17.81,73900.3,-1.91,-31.85,-32.07,0,*5C
1497481255.32,62955,17.81,73902.8,-1.91,-32.07,-32.45,0,*52
1497481256.6,62956,17.81,73902.3,-1.91,-32.07,-32.45,0,*51
1497481257.86,62957,17.81,73900.5,-1.91,-31.91,-32.35,0,*5B
1497481259.15,62958,17.81,73902.3,-1.91,-31.85,-32.07,0,*50
1497481260.43,62959,17.81,73902.8,-1.91,-31.91,-32.07,0,*54
1497481261.72,62960,17.81,73896.5,-1.91,-31.73,-32.07,0,*52
1497481263.0,62961,17.81,73902.8,-1.91,-32.19,-32.63,0,*5E
1497481264.26,62962,17.81,73900.5,-1.91,-31.67,-31.91,0,*59
1497481265.51,62963,17.81,73906.0,-1.91,-31.85,-32.23,0,*5E
1497481266.8,62964,17.81,73900.8,-1.91,-32.07,-32.63,0,*54
1497481268.05,62965,17.81,73900.8,-1.91,-32.19,-32.57,0,*5D
1497481269.33,62966,17.81,73902.5,-1.91,-31.91,-32.45,0,*5E
1497481270.62,62967,17.81,73904.5,-1.91,-31.85,-32.07,0,*5C
1497481271.88,62968,17.81,73902.8,-1.91,-32.01,-32.45,0,*5A
1497481273.13,62969,17.81,73902.0,-1.91,-32.35,-32.63,0,*58
1497481274.36,62970,17.81,73902.8,-1.93,-32.35,-32.79,0,*59
1497481275.58,62971,17.81,73904.5,-1.93,-32.19,-32.57,0,*5A
1497481276.84,62972,17.81,73904.5,-1.93,-32.19,-32.63,0,*5E
1497481278.05,62973,17.81,73902.5,-1.89,-32.01,-32.51,0,*5C
1497481279.31,62974,17.81,73904.8,-1.91,-31.91,-32.23,0,*5D
1497481280.59,62975,17.81,73906.5,-1.91,-32.19,-32.45,0,*5F
1497481281.8,62976,17.81,73900.0,-1.93,-32.01,-32.35,0,*50
1497481283.09,62977,17.81,73900.0,-1.91,-31.85,-32.19,0,*52
1497481284.31,62978,17.81,73902.0,-1.93,-32.19,-32.57,0,*53
1497481285.57,62979,17.81,73904.0,-1.93,-31.85,-32.19,0,*5E
1497481286.83,62980,17.81,73902.8,-1.93,-32.19,-32.45,0,*57
1497481288.06,62981,17.81,73902.3,-1.93,-32.23,-32.75,0,*5C
1497481289.29,62982,17.81,73902.3,-1.93,-32.39,-32.79,0,*58
1497481290.54,62983,17.81,73904.3,-1.93,-31.91,-32.45,0,*57
1497481291.77,62984,17.81,73904.0,-1.93,-32.19,-32.57,0,*50
1497481293.02,62985,17.81,73900.5,-1.93,-32.19,-32.63,0,*56
1497481294.22,62986,17.81,73902.8,-1.93,-32.23,-32.57,0,*5B
1497481295.5,62987,17.81,73902.0,-1.95,-32.29,-32.79,0,*5A
1497481296.75,62988,17.81,73904.8,-1.95,-32.29,-32.69,0,*54
1497481297.98,62989,17.81,73904.8,-1.93,-32.07,-32.57,0,*52
1497481299.22,62990,17.81,73904.0,-1.97,-32.07,-32.51,0,*58
1497481300.42,62991,17.81,73904.5,-1.97,-32.39,-32.69,0,*5F
1497481301.68,62992,17.81,73904.0,-1.95,-31.73,-32.23,0,*5D
1497481302.94,62993,17.81,73902.8,-1.97,-31.61,-32.07,0,*5B
1497481304.2,62994,17.81,73898.8,-1.95,-31.95,-32.51,0,*56
1497481305.46,62995,17.81,73902.0,-1.95,-32.13,-32.63,0,*5B
1497481306.73,62996,17.81,73902.0,-1.95,-32.29,-32.63,0,*51
1497481307.96,62997,17.81,73900.0,-1.97,-32.23,-32.63,0,*58
1497481309.21,62998,17.81,73902.3,-1.95,-32.29,-32.51,0,*5E
1497481310.44,62999,17.81,73902.3,-1.97,-32.39,-32.79,0,*56
1497481311.68,63000,17.81,73900.3,-1.95,-32.13,-32.51,0,*5E
1497481312.93,63001,17.81,73904.3,-1.97,-31.91,-32.29,0,*5B
1497481314.19,63002,17.81,73900.3,-1.95,-32.07,-32.39,0,*57
1497481315.45,63003,17.81,73902.3,-1.95,-32.07,-32.39,0,*56
1497481316.71,63004,17.81,73898.8,-1.95,-31.79,-32.07,0,*56
1497481317.95,63005,17.81,73902.0,-1.95,-32.13,-32.51,0,*5B
1497481319.21,63006,17.81,73902.0,-1.95,-31.95,-32.39,0,*5B
1497481320.48,63007,17.81,73900.3,-1.95,-31.95,-32.51,0,*54
1497481321.71,63008,17.81,73896.8,-1.95,-32.23,-32.69,0,*5E
1497481322.95,63009,17.81,73900.0,-1.97,-31.95,-32.51,0,*58
1497481324.21,63010,17.81,73898.8,-1.95,-31.95,-32.51,0,*52
1497481325.43,63011,17.81,73900.0,-1.97,-32.23,-32.63,0,*5E
1497481326.69,63012,17.81,73900.8,-1.95,-31.95,-32.39,0,*5E
1497481327.92,63013,17.81,73900.3,-1.97,-31.91,-32.23,0,*52
1497481329.16,63014,17.81,73904.3,-1.97,-32.07,-32.51,0,*5C
1497481330.42,63015,17.81,73900.3,-1.95,-32.07,-32.51,0,*5F
1497481331.68,63016,17.81,73902.8,-1.95,-31.95,-32.39,0,*5A
1497481332.95,63017,17.81,73896.5,-1.95,-31.95,-32.51,0,*55
1497481334.15,63018,17.81,73900.5,-1.97,-32.23,-32.69,0,*5D
1497481335.41,63019,17.81,73904.8,-1.95,-31.91,-32.23,0,*5A
1497481336.61,63020,17.81,73902.3,-1.97,-32.23,-32.69,0,*56
1497481337.84,63021,17.81,73902.8,-1.97,-31.95,-32.13,0,*54
1497481339.12,63022,17.81,73902.8,-1.95,-31.95,-32.29,0,*5C
1497481340.37,63023,17.81,73902.0,-1.97,-31.39,-31.91,0,*59
1497481341.64,63024,17.81,73900.5,-1.95,-32.07,-32.51,0,*5D
1497481342.9,63025,17.81,73900.5,-1.95,-32.07,-32.51,0,*5C
1497481344.16,63026,17.75,73896.5,-1.97,-31.73,-32.07,0,*5E
1497481345.4,63027,17.81,73900.5,-1.95,-32.13,-32.51,0,*5B
1497481346.63,63028,17.75,73896.5,-1.95,-31.79,-32.13,0,*5D
1497481347.83,63029,17.81,73900.5,-1.97,-32.13,-32.51,0,*57
1497481349.06,63030,17.81,73904.3,-1.95,-31.79,-32.23,0,*57
1497481350.31,63031,17.81,73902.8,-1.97,-31.91,-32.29,0,*58
1497481351.58,63032,17.81,73902.5,-1.95,-32.07,-32.51,0,*5A
1497481352.84,63033,17.81,73902.0,-1.95,-31.61,-31.79,0,*51
1497481354.04,63034,17.81,73900.3,-1.97,-31.79,-32.13,0,*52
1497481355.32,63035,17.81,73900.0,-1.95,-31.73,-32.07,0,*5E
1497481356.55,63036,17.81,73906.5,-1.95,-31.79,-32.13,0,*52
1497481357.81,63037,17.75,73902.3,-1.95,-31.91,-32.13,0,*55
1497481359.07,63038,17.81,73904.8,-1.95,-31.79,-32.07,0,*59
1497481360.33,63039,17.81,73902.5,-1.95,-31.61,-31.79,0,*5B
1497481361.61,63040,17.81,73900.8,-1.95,-31.61,-31.91,0,*53
1497481362.86,63041,17.75,73900.8,-1.93,-31.57,-31.85,0,*54
1497481364.13,63042,17.81,73906.5,-1.93,-31.85,-32.07,0,*51
1497481365.41,63043,17.81,73906.5,-1.91,-31.57,-31.85,0,*54
1497481366.64,63044,17.81,73908.0,-1.91,-31.67,-32.01,0,*5F
1497481367.9,63045,17.81,73910.0,-1.93,-31.85,-32.19,0,*59
1497481369.15,63046,17.81,73902.5,-1.91,-31.91,-32.23,0,*54
1497481370.38,63047,17.81,73906.5,-1.93,-31.73,-32.01,0,*5B
1497481371.67,63048,17.81,73902.3,-1.91,-31.85,-32.19,0,*56
1497481372.93,63049,17.81,73904.3,-1.93,-31.91,-32.19,0,*50
1497481374.16,63050,17.81,73906.5,-1.93,-31.73,-32.01,0,*5D
1497481375.39,63051,17.81,73902.3,-1.93,-31.85,-32.23,0,*55
1497481376.67,63052,17.81,73904.0,-1.91,-31.85,-32.07,0,*52
1497481377.96,63053,17.81,73902.3,-1.91,-31.73,-32.07,0,*5A
1497481379.22,63054,17.81,73900.3,-1.93,-32.19,-32.45,0,*56
1497481380.41,63055,17.81,73904.8,-1.93,-32.23,-32.57,0,*5D
1497481381.67,63056,17.81,73904.5,-1.93,-32.19,-32.63,0,*50
1497481382.93,63057,17.81,73900.8,-1.91,-32.39,-32.75,0,*56
1497481384.18,63058,17.81,73904.3,-1.91,-32.23,-32.63,0,*55
1497481385.44,63059,17.81,73902.0,-1.93,-32.07,-32.45,0,*54
1497481386.7,63060,17.81,73904.0,-1.93,-31.91,-32.45,0,*52
1497481387.95,63061,17.81,73906.3,-1.93,-32.19,-32.45,0,*50
1497481389.18,63062,17.81,73902.0,-1.93,-31.91,-32.23,0,*50
1497481390.41,63063,17.81,73904.5,-1.93,-31.85,-32.23,0,*54
1497481391.67,63064,17.81,73904.8,-1.93,-32.19,-32.45,0,*55
1497481392.89,63065,17.81,73904.5,-1.93,-32.19,-32.57,0,*57
1497481394.15,63066,17.81,73904.3,-1.91,-31.91,-32.23,0,*56
1497481395.4,63067,17.81,73902.3,-1.93,-31.51,-31.73,0,*5F
1497481396.68,63068,17.81,73902.8,-1.91,-32.19,-32.45,0,*5B
1497481397.94,63069,17.81,73900.0,-1.93,-31.91,-32.19,0,*52
1497481399.18,63070,17.81,73898.3,-1.93,-31.51,-31.73,0,*59
1497481400.41,63071,17.75,73896.8,-1.93,-31.67,-31.91,0,*51
1497481401.62,63072,17.81,73902.3,-1.93,-32.01,-32.23,0,*5B
1497481402.85,63073,17.81,73902.8,-1.93,-31.91,-32.35,0,*57
1497481404.13,63074,17.81,73902.3,-1.91,-31.91,-32.19,0,*5C
1497481405.39,63075,17.75,73896.5,-1.91,-32.01,-32.45,0,*5E
1497481406.65,63076,17.81,73900.8,-1.91,-31.91,-32.35,0,*50
1497481407.94,63077,17.81,73902.8,-1.91,-31.73,-32.19,0,*53
1497481409.17,63078,17.81,73900.5,-1.93,-32.01,-32.45,0,*51
1497481410.42,63079,17.81,73900.0,-1.93,-31.51,-31.85,0,*59
1497481411.71,63080,17.81,73902.0,-1.91,-31.85,-32.07,0,*5D
1497481412.99,63081,17.81,73900.5,-1.91,-32.19,-32.45,0,*5C
1497481414.22,63082,17.75,73902.3,-1.93,-32.35,-32.63,0,*57
1497481415.47,63083,17.81,73900.5,-1.91,-32.19,-32.57,0,*5D
1497481416.75,63084,17.81,73902.5,-1.91,-32.07,-32.45,0,*56
1497481418.04,63085,17.81,73900.8,-1.91,-32.07,-32.45,0,*57
1497481419.29,63086,17.81,73902.0,-1.91,-32.23,-32.63,0,*56
1497481420.5,63087,17.81,73904.8,-1.93,-32.01,-32.35,0,*56
1497481421.78,63088,17.81,73902.8,-1.91,-31.91,-32.07,0,*50
1497481423.07,63089,17.81,73900.5,-1.91,-31.91,-32.19,0,*5E
1497481424.33,63090,17.81,73902.3,-1.91,-32.07,-32.35,0,*54
1497481425.61,63091,17.81,73902.0,-1.91,-31.91,-32.19,0,*57
1497481426.84,63092,17.81,73900.5,-1.93,-31.91,-32.23,0,*5F
1497481428.09,63093,17.81,73902.3,-1.91,-32.23,-32.63,0,*52
1497481429.35,63094,17.81,73902.3,-1.93,-32.19,-32.45,0,*5A
1497481430.64,63095,17.81,73902.8,-1.91,-31.85,-32.19,0,*56
1497481431.89,63096,17.81,73900.0,-1.91,-32.35,-32.63,0,*50
1497481433.11,63097,17.75,73900.5,-1.91,-32.23,-32.57,0,*51
1497481434.39,63098,17.81,73900.3,-1.91,-32.07,-32.45,0,*5B
1497481435.68,63099,17.81,73900.5,-1.91,-31.91,-32.19,0,*5F
1497481436.91,63100,17.81,73904.5,-1.93,-32.07,-32.35,0,*5E
1497481438.11,63101,17.81,73904.0,-1.93,-32.23,-32.57,0,*5D
1497481439.31,63102,17.81,73902.5,-1.93,-32.01,-32.23,0,*5D
1497481440.55,63103,17.81,73900.0,-1.91,-32.01,-32.23,0,*5E
1497481441.81,63104,17.81,73906.8,-1.91,-31.91,-32.23,0,*53
1497481443.09,63105,17.81,73902.3,-1.91,-32.07,-32.45,0,*5E
1497481444.35,63106,17.81,73904.3,-1.93,-32.07,-32.45,0,*5F
1497481445.6,63107,17.81,73906.0,-1.91,-32.23,-32.45,0,*5A
1497481446.8,63108,17.81,73904.3,-1.93,-32.23,-32.57,0,*54
1497481448.01,63109,17.81,73902.0,-1.93,-32.01,-32.23,0,*56
1497481449.23,63110,17.81,73906.3,-1.93,-32.19,-32.57,0,*54
1497481450.46,63111,17.81,73904.8,-1.93,-31.91,-32.35,0,*52
1497481451.74,63112,17.81,73904.0,-1.91,-32.07,-32.45,0,*58
1497481452.98,63113,17.81,73906.0,-1.93,-32.07,-32.35,0,*5C
1497481454.21,63114,17.81,73904.3,-1.93,-31.91,-32.23,0,*50
1497481455.46,63115,17.81,73906.5,-1.91,-32.35,-32.63,0,*5A
1497481456.69,63116,17.81,73904.3,-1.91,-32.01,-32.35,0,*5D
1497481457.92,63117,17.81,73902.3,-1.93,-32.07,-32.35,0,*58
1497481459.15,63118,17.81,73904.8,-1.93,-32.39,-32.63,0,*59
1497481460.36,63119,17.75,73900.8,-1.93,-32.57,-32.91,0,*5D
1497481461.63,63120,17.81,73904.3,-1.95,-32.29,-32.63,0,*55
1497481462.89,63121,17.81,73904.8,-1.95,-32.23,-32.63,0,*5E
1497481464.12,63122,17.81,73902.0,-1.95,-32.13,-32.51,0,*5F
1497481465.36,63123,17.81,73904.3,-1.95,-32.39,-32.69,0,*5D
1497481466.61,63124,17.81,73906.8,-1.97,-32.07,-32.29,0,*51
1497481467.87,63125,17.81,73900.3,-1.95,-32.39,-32.79,0,*5A
1497481469.12,63126,17.81,73902.8,-1.95,-32.39,-32.63,0,*52
1497481470.35,63127,17.75,73902.8,-1.97,-32.51,-32.85,0,*57
1497481471.58,63128,17.81,73902.3,-1.97,-32.39,-32.79,0,*55
1497481472.82,63129,17.81,73902.8,-1.95,-32.39,-32.69,0,*57
1497481474.07,63130,17.75,73900.5,-1.97,-32.45,-32.63,0,*5C
1497481475.33,63131,17.81,73904.0,-1.95,-32.07,-32.39,0,*56
1497481476.56,63132,17.81,73902.5,-1.97,-31.95,-32.13,0,*57
1497481477.81,63133,17.81,73900.3,-1.95,-32.23,-32.63,0,*5D
1497481479.06,63134,17.81,73902.3,-1.95,-32.13,-32.29,0,*57
1497481480.29,63135,17.81,73902.5,-1.95,-32.23,-32.51,0,*5A
1497481481.52,63136,17.81,73902.3,-1.97,-32.39,-32.63,0,*51
1497481482.72,63137,17.81,73904.0,-1.97,-32.23,-32.51,0,*5A
1497481483.95,63138,17.81,73902.5,-1.97,-32.23,-32.63,0,*54
1497481485.23,63139,17.81,73902.3,-1.95,-32.07,-32.29,0,*5F
1497481486.48,63140,17.81,73902.0,-1.95,-32.39,-32.63,0,*52
1497481487.73,63141,17.81,73904.8,-1.97,-32.29,-32.63,0,*50
1497481488.95,63142,17.81,73904.5,-1.97,-32.23,-32.63,0,*59
1497481490.16,63143,17.81,73900.8,-1.97,-32.13,-32.51,0,*5A
1497481491.41,63144,17.81,73902.8,-1.97,-32.29,-32.63,0,*55
1497481492.66,63145,17.81,73900.3,-1.95,-32.23,-32.63,0,*5C
1497481493.89,63146,17.81,73904.5,-1.97,-32.39,-32.85,0,*5E
1497481495.09,63147,17.81,73906.3,-1.97,-32.39,-32.51,0,*56
1497481496.32,63148,17.81,73902.0,-1.97,-31.91,-32.13,0,*5E
1497481497.52,63149,17.81,73900.8,-1.97,-32.23,-32.51,0,*53
1497481498.77,63150,17.81,73900.0,-1.97,-32.29,-32.63,0,*50
1497481500.0,63151,17.75,73900.0,-1.99,-32.35,-32.69,0,*58
1497481501.23,63152,17.75,73900.0,-1.99,-32.57,-32.91,0,*58
1497481502.47,63153,17.81,73900.0,-1.99,-32.69,-32.91,0,*54
1497481503.76,63154,17.81,73900.8,-1.99,-32.45,-32.75,0,*57
1497481505.02,63155,17.81,73902.5,-1.99,-32.51,-32.85,0,*5C
1497481506.27,63156,17.81,73902.5,-1.99,-32.35,-32.75,0,*52
1497481507.53,63157,17.81,73902.5,-1.99,-32.51,-32.85,0,*5E
1497481508.79,63158,17.81,73904.3,-1.99,-32.29,-32.69,0,*5C
1497481510.07,63159,17.81,73904.3,-1.99,-32.45,-32.75,0,*5A
1497481511.3,63160,17.75,73902.8,-2.01,-32.13,-32.45,0,*52
1497481512.56,63161,17.81,73902.3,-1.99,-31.85,-32.01,0,*5D
1497481513.81,63162,17.81,73900.0,-1.99,-31.67,-31.85,0,*5D
1497481515.06,63163,17.75,73900.3,-1.99,-32.19,-32.57,0,*5A
1497481516.3,63164,17.81,73902.3,-1.99,-32.01,-32.35,0,*50
1497481517.59,63165,17.81,73902.0,-1.99,-31.85,-32.19,0,*50
1497481518.87,63166,17.75,73902.3,-1.99,-31.85,-32.29,0,*50
1497481520.13,63167,17.81,73902.5,-1.99,-32.01,-32.19,0,*5D
1497481521.38,63168,17.81,73906.8,-1.99,-32.29,-32.69,0,*5F
1497481522.61,63169,17.81,73902.3,-1.97,-32.19,-32.57,0,*5E
1497481523.83,63170,17.75,73902.3,-1.97,-32.23,-32.63,0,*58
1497481525.11,63171,17.81,73904.3,-1.99,-32.19,-32.45,0,*5A
1497481526.34,63172,17.75,73902.0,-1.97,-31.91,-32.13,0,*57
1497481527.59,63173,17.81,73900.3,-1.97,-31.95,-32.29,0,*5B
1497481528.8,63174,17.75,73900.0,-1.97,-32.13,-32.51,0,*5E
1497481530.08,63175,17.81,73902.0,-1.99,-32.19,-32.45,0,*5E
1497481531.34,63176,17.81,73900.8,-1.99,-32.01,-32.29,0,*5E
1497481532.56,63177,17.75,73894.3,-1.99,-31.67,-32.01,0,*56
1497481533.85,63178,17.81,73898.3,-1.99,-31.85,-32.19,0,*5C
1497481535.1,63179,17.75,73898.3,-1.97,-31.91,-32.29,0,*55
1497481536.3,63180,17.81,73898.3,-1.97,-31.79,-32.13,0,*5C
1497481537.53,63181,17.75,73898.3,-1.97,-31.91,-32.13,0,*5B
1497481538.76,63182,17.75,73896.8,-1.97,-31.95,-32.23,0,*5F
1497481540.01,63183,17.81,73900.5,-1.95,-31.95,-32.23,0,*5C
1497481541.25,63184,17.81,73900.8,-1.97,-31.95,-32.39,0,*52
1497481542.53,63185,17.81,73900.5,-1.95,-31.95,-32.29,0,*50
1497481543.79,63186,17.81,73902.8,-1.99,-32.01,-32.29,0,*51
1497481545.04,63187,17.75,73902.3,-1.97,-32.07,-32.29,0,*58
1497481546.3,63188,17.75,73902.3,-1.95,-32.07,-32.39,0,*54
1497481547.54,63189,17.75,73896.5,-1.97,-32.07,-32.51,0,*59
1497481548.77,63190,17.75,73900.8,-1.97,-31.95,-32.23,0,*5C
1497481549.98,63191,17.81,73902.8,-1.97,-32.13,-32.51,0,*55
1497481551.23,63192,17.75,73896.5,-1.97,-31.95,-32.29,0,*54
1497481552.48,63193,17.81,73900.8,-1.95,-31.91,-32.23,0,*59
1497481553.69,63194,17.81,73902.8,-1.97,-32.13,-32.51,0,*50
1497481554.97,63195,17.75,73896.3,-1.95,-32.07,-32.29,0,*59
1497481556.2,63196,17.81,73900.8,-1.95,-32.23,-32.51,0,*53
1497481557.45,63197,17.81,73902.0,-1.99,-32.29,-32.57,0,*52
1497481558.68,63198,17.81,73900.0,-1.97,-31.95,-32.23,0,*54
1497481559.93,63199,17.75,73896.8,-1.97,-31.91,-32.29,0,*5B
1497481561.16,63200,17.81,73900.0,-1.97,-31.95,-32.23,0,*56
1497481562.39,63201,17.81,73898.3,-1.97,-31.95,-32.23,0,*57
1497481563.62,63202,17.81,73896.0,-1.97,-31.79,-31.95,0,*58
1497481564.85,63203,17.81,73900.0,-1.97,-31.79,-32.07,0,*51
1497481566.11,63204,17.81,73902.5,-1.97,-31.73,-31.95,0,*54
1497481567.37,63205,17.81,73900.0,-1.95,-32.07,-32.51,0,*5C
1497481568.6,63206,17.81,73898.5,-1.97,-31.45,-31.73,0,*5B
1497481569.89,63207,17.81,73896.5,-1.95,-31.91,-32.07,0,*51
1497481571.14,63208,17.75,73894.0,-1.95,-31.91,-32.13,0,*5B
1497481572.39,63209,17.81,73896.8,-1.95,-31.91,-32.13,0,*5A
1497481573.65,63210,17.81,73900.3,-1.95,-31.91,-32.23,0,*51
1497481574.91,63211,17.81,73896.8,-1.93,-31.85,-32.19,0,*5A
1497481576.2,63212,17.81,73902.3,-1.95,-31.61,-31.95,0,*52
1497481577.48,63213,17.75,73896.5,-1.95,-31.91,-32.29,0,*58
1497481578.75,63214,17.81,73898.8,-1.95,-31.91,-32.29,0,*5F
1497481580.04,63215,17.81,73900.5,-1.95,-31.91,-32.07,0,*52
1497481581.26,63216,17.75,73896.5,-1.97,-31.91,-32.13,0,*56
1497481582.53,63217,17.81,73900.8,-1.95,-32.07,-32.39,0,*51
1497481583.81,63218,17.81,73900.0,-1.95,-31.61,-31.95,0,*58
1497481585.1,63219,17.81,73900.3,-1.95,-31.61,-31.91,0,*5D
1497481586.35,63220,17.75,73898.0,-1.95,-31.91,-32.13,0,*51
1497481587.58,63221,17.81,73896.3,-1.97,-32.07,-32.39,0,*56
1497481588.82,63222,17.75,73898.0,-1.95,-32.13,-32.39,0,*52
1497481590.02,63223,17.75,73898.3,-1.97,-32.23,-32.51,0,*5C
1497481591.25,63224,17.81,73902.5,-1.97,-31.79,-32.07,0,*54
1497481592.51,63225,17.81,73896.3,-1.95,-31.73,-32.13,0,*58
1497481593.79,63226,17.81,73898.8,-1.95,-31.23,-31.57,0,*5D
1497481595.05,63227,17.81,73902.0,-1.95,-31.91,-32.13,0,*56
1497481596.31,63228,17.75,73902.3,-1.95,-31.95,-32.39,0,*55
1497481597.54,63229,17.75,73896.8,-1.95,-32.13,-32.51,0,*57
1497481598.8,63230,17.81,73902.8,-1.95,-31.91,-32.13,0,*50
1497481600.02,63231,17.81,73902.0,-1.93,-31.67,-31.85,0,*52
1497481601.28,63232,17.75,73898.8,-1.93,-31.85,-32.07,0,*54
1497481602.54,63233,17.75,73894.5,-1.93,-31.91,-32.19,0,*5F
1497481603.8,63234,17.75,73894.5,-1.93,-31.85,-32.07,0,*52
1497481605.05,63235,17.81,73900.5,-1.91,-31.33,-31.57,0,*5A
1497481606.28,63236,17.81,73896.8,-1.93,-31.67,-31.91,0,*50
1497481607.54,63237,17.81,73900.5,-1.93,-31.85,-32.19,0,*5E
1497481608.76,63238,17.75,73896.3,-1.93,-31.67,-31.85,0,*5B
1497481610.05,63239,17.75,73898.5,-1.91,-31.57,-31.85,0,*5B
1497481611.28,63240,17.81,73900.5,-1.93,-31.91,-32.23,0,*52
1497481612.51,63241,17.81,73900.5,-1.93,-32.01,-32.45,0,*59
1497481613.72,63242,17.75,73900.8,-1.93,-32.01,-32.23,0,*5A
1497481614.95,63243,17.81,73900.8,-1.93,-31.91,-32.23,0,*51
1497481616.17,63244,17.81,73902.3,-1.93,-32.23,-32.45,0,*5C
1497481617.4,63245,17.75,73898.5,-1.93,-32.07,-32.35,0,*5C
1497481618.69,63246,17.75,73898.5,-1.91,-31.85,-32.07,0,*55
1497481619.95,63247,17.75,73902.3,-1.93,-31.85,-32.19,0,*59
1497481621.21,63248,17.75,73900.3,-1.93,-31.73,-32.07,0,*50
1497481622.42,63249,17.75,73900.0,-1.93,-32.01,-32.35,0,*56
1497481623.68,63250,17.81,73902.8,-1.93,-31.85,-32.19,0,*5F
1497481624.91,63251,17.81,73898.0,-1.93,-31.73,-32.01,0,*5E
1497481626.17,63252,17.75,73896.5,-1.93,-32.07,-32.45,0,*5D
1497481627.38,63253,17.81,73902.8,-1.93,-32.01,-32.35,0,*5D
1497481628.57,63254,17.75,73896.5,-1.93,-32.35,-32.57,0,*59
1497481629.8,63255,17.81,73898.5,-1.93,-32.01,-32.45,0,*5C
1497481631.03,63256,17.81,73902.8,-1.93,-32.35,-32.63,0,*5C
1497481632.26,63257,17.75,73898.3,-1.93,-31.91,-32.23,0,*54
1497481633.49,63258,17.81,73900.8,-1.95,-32.13,-32.51,0,*51
1497481634.75,63259,17.81,73902.5,-1.91,-32.35,-32.75,0,*56
1497481636.0,63260,17.81,73900.5,-1.95,-32.13,-32.63,0,*5B
1497481637.26,63261,17.75,73898.8,-1.93,-31.85,-32.19,0,*5D
1497481638.52,63262,17.81,73902.0,-1.95,-31.95,-32.23,0,*50
1497481639.75,63263,17.81,73902.8,-1.93,-31.91,-32.23,0,*53
1497481640.98,63264,17.81,73898.0,-1.93,-31.73,-32.01,0,*58
1497481642.23,63265,17.81,73902.0,-1.91,-31.67,-31.91,0,*54
1497481643.44,63266,17.75,73898.5,-1.93,-32.01,-32.23,0,*5C
1497481644.69,63267,17.81,73900.0,-1.91,-31.67,-31.91,0,*56
1497481645.95,63268,17.81,73902.0,-1.93,-32.07,-32.45,0,*54
1497481647.15,63269,17.75,73898.5,-1.93,-31.67,-32.01,0,*50
1497481648.41,63270,17.81,73902.0,-1.93,-31.23,-31.51,0,*5E
1497481649.67,63271,17.75,73900.0,-1.93,-31.85,-32.07,0,*53
1497481650.9,63272,17.81,73902.5,-1.93,-31.91,-32.23,0,*53
1497481652.15,63273,17.75,73892.0,-1.93,-31.57,-31.73,0,*5E
1497481653.41,63274,17.81,73898.5,-1.93,-31.91,-32.45,0,*55
1497481654.66,63275,17.75,73896.0,-1.91,-32.19,-32.57,0,*56
1497481655.9,63276,17.75,73898.5,-1.91,-32.01,-32.35,0,*58
1497481657.15,63277,17.81,73900.3,-1.91,-31.91,-32.35,0,*53
1497481658.44,63278,17.81,73900.5,-1.91,-31.91,-32.19,0,*52
1497481659.66,63279,17.75,73898.8,-1.93,-31.67,-31.91,0,*5B
1497481660.89,63280,17.75,73896.5,-1.93,-31.91,-32.35,0,*59
1497481662.18,63281,17.75,73894.5,-1.91,-31.73,-31.91,0,*5B
1497481663.46,63282,17.75,73894.3,-1.91,-31.51,-31.85,0,*5D
1497481664.71,63283,17.75,73896.0,-1.93,-31.91,-32.19,0,*54
1497481665.97,63284,17.81,73896.0,-1.93,-31.73,-32.07,0,*50
1497481667.26,63285,17.75,73896.8,-1.91,-31.73,-32.07,0,*53
1497481668.55,63286,17.81,73900.3,-1.91,-31.85,-32.19,0,*56
1497481669.81,63287,17.81,73900.0,-1.91,-31.85,-32.23,0,*5E
1497481671.03,63288,17.75,73896.5,-1.93,-31.67,-31.91,0,*55
1497481672.32,63289,17.75,73898.3,-1.91,-31.23,-31.51,0,*5A
1497481673.61,63290,17.75,73896.8,-1.91,-31.85,-32.07,0,*5E
1497481674.81,63291,17.75,73896.0,-1.93,-32.01,-32.35,0,*53
1497481676.1,63292,17.81,73898.0,-1.91,-31.85,-32.19,0,*53
1497481677.39,63293,17.75,73898.8,-1.91,-32.07,-32.45,0,*52
1497481678.67,63294,17.81,73900.3,-1.91,-31.91,-32.07,0,*5F
1497481679.9,63295,17.81,73898.3,-1.93,-31.91,-32.35,0,*5D
1497481681.12,63296,17.81,73898.8,-1.91,-32.23,-32.57,0,*52
1497481682.38,63297,17.81,73896.8,-1.91,-32.23,-32.63,0,*54
1497481683.62,63298,17.81,73900.8,-1.91,-32.35,-32.63,0,*5C
1497481684.86,63299,17.81,73898.8,-1.91,-32.01,-32.23,0,*5E
1497481686.12,63300,17.75,73896.3,-1.93,-31.85,-32.19,0,*5B
1497481687.35,63301,17.75,73896.5,-1.93,-32.07,-32.35,0,*5D
1497481688.61,63302,17.81,73900.0,-1.93,-31.73,-32.07,0,*5F
1497481689.87,63303,17.81,73898.8,-1.93,-31.85,-32.07,0,*57
1497481691.16,63304,17.75,73896.5,-1.91,-32.19,-32.45,0,*52
1497481692.41,63305,17.81,73898.8,-1.91,-31.91,-32.23,0,*50
1497481693.67,63306,17.75,73896.5,-1.93,-31.85,-32.07,0,*52
1497481694.96,63307,17.75,73900.3,-1.91,-31.73,-32.07,0,*58
1497481696.22,63308,17.81,73900.5,-1.91,-31.17,-31.51,0,*55
1497481697.47,63309,17.81,73902.0,-1.91,-31.91,-32.23,0,*5C
1497481698.75,63310,17.75,73900.0,-1.91,-31.39,-31.51,0,*50